Vertical_Velocity
-4 2 -2 -5 -1 -2 -1 -0 -2 -2 -1 -5 -2 0 -1 0 6 2 5 4 -0 2 -4 -5 -1 2 2 -4 1 -6 2 -1 -5 -1 -1 -2 -2 -0 -3 0 -0 9 0 -5
7 -3 -7 1 2 3 2 -1 0 -3 2 -9 1 2 1 -0 -1 -10 -5 1 -0 12 2 1 -1 -3 -3 -8 -2 -3 2 -5 -4 -0 1 0 0 -1 2 2 7 2 -3 1
-1 -13 3 8 -0 5 -1 -1 -0 -10 2 4 -3 1 -0 2 5 11 8 -7 2 2 -4 1 1 -2 -3 0 -4 -2 -6 -1 -1 -2 -2 -1 -1 -1 5 0 -2 0 6 1
-5 -7 1 3 1 2 2 -1 1 0 -1 -9 -6 -4 2 -0 -2 2 4 1 3 -2 8 2 -2 7 1 -1 -0 -4 -3 -2 -3 -3 -5 -1 -1 2 2 3 1 -1 -3 -4
-24 1 3 6 -11 0 -10 1 -1 1 0 1 6 -7 -10 4 0 1 2 -0 5 -3 -7 -5 -12 -10 1 -2 -5 -5 -1 -1 -2 -1 -1 0 3 1 -1 1 1 8 0 -4
-8 -6 5 -13 -3 1 -2 2 -0 1 -1 -4 -5 -7 1 -4 -15 0 5 3 1 -1 1 -0 -6 -5 0 2 -2 -5 -2 -2 -0 1 1 0 -1 0 -0 -0 -2 -7 -6 0
5 -5 -3 7 5 2 2 -0 -3 -6 -4 -9 -2 5 -13 -3 -2 -9 -4 -1 -4 4 1 -3 -2 -4 2 -2 -3 -4 -4 -4 -0 1 -0 -2 -6 -3 -4 -5 -7 -6 1 -4
-1 3 3 -9 -7 -12 -3 -8 -8 -5 -2 -9 -0 -2 -13 -9 -4 -3 -2 -7 1 7 16 0 -0 -0 0 -1 -2 -4 -8 -4 -2 1 -1 -2 -1 -2 -1 -3 -2 -1 -0 2
2 -7 -3 2 -0 -8 -13 0 -13 -1 -2 -1 -4 5 -8 4 4 4 1 4 -0 1 11 -9 -3 -4 5 -1 -5 -6 -3 -6 -6 -1 -1 -0 -1 -2 -2 -0 1 2 -3 0
-12 -1 -4 -4 7 -2 -17 -8 -8 -6 -2 -2 -4 -1 -4 2 3 2 3 -1 -2 5 8 29 14 4 2 3 1 0 2 -2 -1 -6 -4 0 -3 1 -1 -1 1 -0 0 -1
2 1 -19 9 -0 -5 1 2 -0 -8 -5 -5 -2 -5 -3 -1 -1 -1 -0 -1 -5 -5 9 -6 -20 2 8 5 -0 -2 -1 -3 0 2 -8 -2 -4 -0 3 -4 -2 -2 -3 -2
-18 -2 -0 -17 -6 -5 -3 -4 -4 -7 -8 -2 -6 -11 -1 -2 -1 -3 2 3 2 5 -1 -11 -1 -2 8 3 0 -3 -0 1 -3 -2 -3 -4 -1 -1 -3 -0 -2 -2 -2 -3
-14 -5 2 -6 15 13 2 -2 -1 -1 -2 -2 -4 -8 0 1 1 6 -1 3 1 -8 15 1 1 -7 6 -3 -2 -0 -2 2 0 -1 -3 -5 -4 -2 1 -2 -1 -2 -2 -3
5 0 -9 -9 -16 -7 4 2 0 -4 -2 -4 -5 1 0 1 1 2 3 -1 -6 0 -2 -2 -1 -7 -7 -1 -2 -3 1 0 -4 -1 -2 -6 -7 1 0 -1 -3 -6 -1 -0
3 -2 2 -1 -1 1 -1 -2 -0 1 -5 -8 -4 -3 -3 -2 -3 -4 -1 -11 -2 1 9 5 2 0 1 4 3 2 6 1 -2 -1 -4 -9 -0 -3 1 1 -3 -6 -2 -6
-0 -4 -0 0 -0 1 0 0 0 -0 -0 1 1 -1 -7 1 6 4 -0 -2 1 -1 -1 5 8 10 -2 -2 -9 7 -2 2 -7 0 -3 -3 -5 -2 -5 -3 -1 -2 0 -2
-4 -3 -1 -0 0 -1 -6 -2 -2 -2 -0 -6 -1 -10 0 3 1 -1 2 -1 -4 -6 -2 -1 5 13 8 -3 4 3 8 -22 12 -3 0 -4 1 -4 -5 0 3 -4 -5 1
-1 -1 -2 -1 -0 1 -16 -0 1 -3 3 -0 -2 1 -2 -3 -1 -5 -2 -6 -4 -4 -5 -5 -5 -7 9 7 7 5 -6 -18 11 6 -4 4 -0 -6 -3 3 0 -1 3 1
-3 -2 -3 -4 -1 -7 1 -5 -5 -7 -1 1 1 1 3 8 -1 3 2 9 5 -3 -5 -3 0 0 2 -3 9 5 6 6 16 -0 -14 1 -2 -3 4 6 2 0 -2 -2
-3 -4 -10 -2 -4 -1 -7 0 0 -2 -0 1 -5 2 1 1 -4 -2 -1 -5 -6 -12 -8 -5 -5 3 6 4 6 -0 -3 2 -1 -12 -3 2 2 1 -1 -0 -6 -5 -1 -5
-1 -1 -4 1 -1 -8 -0 -3 5 -21 -22 2 -2 -1 -2 -4 -10 -4 -0 1 -0 -1 1 -2 -0 -5 -0 9 0 4 -1 -11 -6 3 4 2 -0 -3 -5 -2 6 -1 -0 8
-5 -1 -1 -1 -2 -9 -0 -7 -10 -7 16 1 4 9 4 3 8 11 5 -3 4 1 -0 -8 -3 -1 6 1 -3 -0 -5 9 0 4 4 1 0 -3 -1 3 4 -0 21 51
-10 6 -0 -2 -0 0 -7 6 16 10 8 7 0 3 2 2 2 -0 4 -14 9 1 5 12 28 17 7 5 16 3 -2 -6 15 29 17 7 10 13 9 9 12 14 1 -6
3 -0 -3 -2 -1 -0 7 4 -8 -0 6 -6 8 11 2 3 2 -2 -5 -9 1 3 -0 -0 -3 -8 -10 11 6 -2 -2 -1 -108 36 -10 1 -27 -8 13 5 4 -0 -4 -5
-1 -4 -0 1 -2 -2 -0 3 11 -2 -37 -19 6 12 -0 -7 -7 -6 -0 -5 -3 5 5 11 -5 -9 -29 -13 7 2 8 -9 -28 -15 -38 -15 -7 1 3 1 1 -7 1 2
-3 -5 -4 -4 0 -2 -5 -0 2 -9 -1 -5 -10 -8 0 2 4 8 -8 -6 1 2 5 3 -3 3 4 -2 0 5 12 -28 2 -18 3 5 8 -1 -0 2 -3 -5 -0 -3
Height
1470 1479 1487 1476 1470 1469 1471 1479 1492 1492 1487 1494 1502 1507 1508 1513 1517 1521 1523 1524 1528 1532 1536 1540 1544 1547 1550 1554 1557 1559 1561 1563 1564 1565 1566 1567 1567 1568 1569 1569 1570 1571 1570 1569
1475 1483 1468 1463 1463 1463 1466 1479 1485 1477 1481 1487 1498 1507 1505 1512 1518 1514 1519 1521 1524 1528 1532 1537 1541 1544 1547 1550 1554 1556 1559 1560 1562 1563 1565 1565 1566 1566 1567 1567 1568 1568 1567 1568
1475 1471 1462 1463 1462 1464 1466 1474 1479 1480 1479 1482 1496 1516 1515 1504 1499 1508 1509 1516 1522 1523 1528 1534 1538 1542 1545 1548 1551 1554 1556 1558 1560 1562 1562 1563 1564 1564 1565 1564 1564 1565 1566 1566
1467 1460 1460 1462 1464 1458 1478 1455 1457 1468 1481 1521 1487 1539 1520 1511 1504 1502 1503 1509 1514 1520 1525 1529 1536 1541 1542 1546 1549 1552 1554 1556 1558 1559 1559 1560 1561 1561 1562 1562 1562 1563 1563 1563
1463 1458 1457 1459 1455 1450 1463 1453 1458 1463 1478 1483 1488 1510 1502 1507 1509 1498 1500 1504 1509 1512 1517 1522 1530 1538 1541 1544 1547 1550 1552 1554 1555 1556 1557 1557 1557 1558 1558 1559 1559 1561 1560 1560
1450 1445 1446 1448 1443 1444 1446 1454 1461 1464 1479 1514 1488 1499 1516 1501 1489 1483 1483 1497 1499 1505 1510 1516 1522 1530 1535 1539 1543 1547 1550 1552 1553 1554 1555 1555 1554 1555 1555 1556 1557 1557 1558 1558
1447 1444 1438 1438 1449 1444 1447 1469 1510 1518 1516 1518 1477 1489 1491 1471 1470 1474 1480 1484 1491 1496 1501 1507 1513 1521 1528 1532 1536 1541 1545 1549 1551 1552 1552 1551 1550 1551 1551 1552 1553 1554 1555 1555
1466 1470 1439 1430 1441 1455 1457 1470 1508 1525 1523 1502 1466 1489 1473 1452 1455 1465 1471 1475 1482 1491 1496 1502 1508 1515 1518 1524 1527 1532 1539 1544 1547 1549 1549 1549 1549 1549 1549 1549 1549 1551 1552 1553
1459 1458 1427 1426 1426 1436 1454 1471 1456 1483 1475 1499 1477 1452 1444 1446 1455 1462 1466 1471 1476 1483 1492 1501 1504 1509 1513 1517 1521 1525 1531 1537 1541 1545 1546 1547 1547 1546 1546 1547 1547 1548 1548 1549
1437 1462 1426 1422 1424 1427 1441 1440 1477 1486 1509 1517 1487 1475 1478 1459 1456 1458 1464 1468 1471 1476 1487 1489 1499 1504 1508 1512 1515 1520 1526 1529 1533 1537 1542 1543 1544 1544 1544 1544 1544 1545 1545 1546
1424 1444 1433 1422 1431 1442 1443 1453 1455 1467 1482 1509 1508 1492 1452 1454 1454 1456 1457 1461 1467 1475 1483 1486 1497 1503 1502 1505 1510 1514 1519 1523 1527 1530 1535 1539 1540 1541 1541 1541 1542 1542 1542 1542
1413 1430 1445 1429 1413 1415 1425 1440 1451 1487 1483 1477 1488 1484 1436 1442 1446 1451 1456 1461 1466 1471 1477 1480 1484 1492 1498 1498 1504 1507 1512 1516 1522 1526 1528 1533 1537 1539 1539 1538 1539 1540 1539 1539
1406 1425 1451 1441 1422 1413 1427 1429 1435 1443 1455 1478 1494 1482 1443 1443 1448 1451 1457 1462 1465 1470 1475 1476 1480 1484 1487 1490 1496 1500 1505 1509 1514 1520 1522 1528 1532 1534 1534 1534 1535 1536 1536 1536
1396 1414 1429 1449 1430 1419 1433 1425 1427 1440 1471 1470 1471 1464 1457 1454 1454 1456 1454 1462 1466 1467 1469 1469 1472 1477 1480 1483 1487 1492 1497 1502 1508 1512 1516 1521 1526 1528 1530 1529 1530 1531 1531 1532
1390 1420 1413 1410 1406 1407 1414 1420 1423 1437 1443 1464 1451 1457 1451 1444 1449 1451 1453 1460 1465 1466 1467 1468 1468 1469 1472 1478 1479 1486 1491 1496 1503 1506 1509 1513 1519 1523 1525 1525 1525 1525 1527 1526
1378 1410 1402 1408 1401 1406 1417 1414 1421 1423 1427 1430 1435 1446 1426 1427 1436 1439 1448 1454 1458 1463 1466 1467 1468 1465 1467 1470 1469 1476 1482 1487 1493 1502 1504 1509 1514 1518 1520 1522 1520 1520 1522 1522
1382 1397 1411 1426 1404 1413 1436 1417 1417 1419 1413 1418 1439 1428 1423 1433 1438 1443 1449 1454 1457 1460 1463 1463 1464 1464 1460 1462 1465 1471 1483 1496 1492 1496 1500 1504 1508 1511 1514 1515 1515 1516 1517 1518
1387 1394 1405 1425 1415 1451 1416 1401 1406 1422 1423 1418 1417 1419 1420 1429 1436 1442 1446 1450 1454 1458 1461 1459 1460 1459 1457 1458 1462 1469 1472 1482 1489 1488 1494 1500 1504 1508 1509 1510 1511 1512 1513 1514
1382 1399 1429 1434 1438 1420 1409 1406 1415 1419 1436 1419 1416 1417 1415 1422 1433 1441 1444 1446 1451 1453 1458 1456 1457 1456 1455 1455 1459 1462 1469 1475 1481 1483 1492 1497 1501 1503 1505 1506 1509 1510 1510 1508
1392 1397 1422 1447 1461 1456 1418 1406 1408 1409 1444 1420 1418 1419 1426 1428 1448 1445 1444 1447 1449 1451 1452 1451 1452 1452 1452 1452 1454 1459 1466 1474 1480 1485 1490 1492 1495 1497 1499 1501 1503 1503 1503 1504
1416 1414 1428 1445 1456 1446 1422 1420 1401 1454 1444 1420 1421 1423 1429 1437 1439 1441 1442 1445 1447 1447 1446 1447 1448 1450 1451 1449 1452 1460 1468 1475 1478 1483 1486 1489 1491 1494 1496 1497 1497 1497 1497 1499
1418 1426 1429 1427 1449 1461 1427 1419 1426 1431 1421 1421 1425 1427 1424 1433 1439 1438 1436 1443 1444 1444 1442 1444 1446 1447 1447 1447 1453 1460 1467 1471 1476 1481 1485 1488 1490 1490 1491 1490 1492 1494 1491 1493
1433 1438 1430 1428 1441 1442 1454 1435 1426 1423 1424 1429 1430 1429 1430 1431 1432 1435 1434 1438 1440 1441 1441 1444 1446 1447 1448 1448 1457 1462 1465 1466 1474 1474 1481 1486 1487 1486 1486 1486 1489 1490 1488 1489
1421 1434 1439 1431 1441 1440 1438 1428 1431 1427 1429 1438 1440 1436 1436 1435 1430 1432 1434 1438 1437 1437 1437 1437 1439 1443 1451 1461 1457 1460 1463 1463 1468 1464 1477 1475 1484 1486 1487 1483 1483 1484 1483 1485
1424 1426 1432 1436 1434 1437 1440 1440 1438 1436 1433 1446 1446 1438 1434 1435 1436 1438 1438 1436 1435 1434 1433 1433 1436 1439 1447 1459 1458 1462 1461 1459 1466 1478 1473 1476 1473 1481 1481 1481 1480 1481 1481 1480
1420 1427 1434 1448 1445 1441 1449 1442 1442 1444 1445 1442 1448 1447 1441 1440 1440 1437 1434 1434 1434 1435 1436 1435 1436 1439 1443 1450 1457 1459 1458 1460 1464 1471 1472 1472 1470 1472 1473 1474 1475 1476 1475 1475